Theta_e
313 314 314 314 314 314 314 314 315 316 317 317 318 318 318 317 317 309 303 311 313 325 325 307 306 306 307 305 308 312 302 299 301 303 305 311 309 314 314 310 312 313 315 326 330
313 313 314 314 314 314 314 314 315 316 316 317 318 318 317 317 309 304 316 322 325 325 307 304 304 303 300 302 302 304 298 301 308 309 308 310 310 312 311 309 309 311 317 326 329
313 313 313 313 314 314 314 314 315 315 316 317 317 317 318 316 304 303 323 327 327 321 309 307 307 303 297 301 301 303 299 305 307 311 312 311 311 314 310 307 308 309 312 321 326
312 313 313 313 313 313 313 314 314 315 316 316 316 317 319 311 295 310 325 329 327 316 309 306 302 296 294 295 300 297 303 306 307 310 310 309 312 311 312 311 314 314 314 315 316
312 312 312 312 312 312 313 313 314 314 315 315 316 317 312 306 305 312 330 329 319 313 308 304 298 296 294 296 298 298 300 303 307 309 309 310 308 309 310 315 317 317 316 314 314
313 312 312 312 312 312 313 313 313 314 314 315 316 318 309 302 307 313 320 313 312 308 305 303 298 301 295 294 293 297 300 301 303 303 304 306 308 309 311 315 316 317 315 314 315
313 313 312 312 312 312 313 313 313 313 314 317 317 315 305 304 307 308 307 302 307 309 304 305 304 300 299 294 297 297 293 297 300 302 301 304 301 303 311 313 312 313 315 316 316
312 312 312 311 312 312 313 313 313 313 315 318 318 310 303 307 305 305 305 305 307 306 304 305 305 299 296 298 296 292 291 285 295 300 302 301 294 303 307 308 310 313 314 316 316
312 311 311 311 311 312 312 312 313 314 316 319 310 306 301 310 305 307 305 304 305 306 305 308 301 297 297 291 287 289 283 287 291 297 298 298 295 302 306 306 307 309 310 314 315
312 312 311 311 311 312 311 312 313 314 315 315 313 302 306 303 306 307 307 307 303 302 302 301 296 292 290 288 281 285 286 289 289 293 294 293 294 300 304 305 305 307 308 312 314
312 311 311 311 312 311 308 305 303 302 305 304 306 305 304 307 308 304 308 305 303 299 291 296 289 286 291 293 294 293 291 290 293 297 294 293 294 296 300 301 303 305 306 308 311
312 312 312 312 312 311 305 301 302 301 295 304 303 303 306 305 299 303 308 299 296 291 294 291 287 294 296 295 293 292 289 288 292 296 294 293 292 296 298 299 301 301 305 307 310
311 311 311 311 311 307 304 307 308 306 293 300 304 302 302 303 299 300 303 299 294 290 291 288 292 297 294 292 290 290 288 289 289 293 294 292 290 292 297 299 301 303 304 307 307
311 311 310 311 306 307 306 308 308 307 288 296 297 300 302 301 297 305 305 299 294 290 292 290 294 294 292 291 292 287 294 293 292 289 283 291 281 289 293 295 298 300 302 303 305
310 311 310 309 302 303 305 307 308 303 282 297 297 305 301 297 299 301 305 299 292 292 291 289 291 291 291 293 295 291 295 292 291 288 286 287 283 288 292 292 294 297 300 302 305
310 310 309 309 305 307 310 308 305 290 282 292 298 296 295 298 299 301 300 301 299 293 292 291 297 295 294 296 296 296 292 291 289 286 280 285 285 285 289 292 295 298 300 302 304
309 309 307 308 305 312 310 303 288 284 298 292 293 295 294 294 296 297 295 291 288 285 284 290 290 296 298 292 294 291 285 278 276 277 278 287 284 286 292 296 297 298 299 302 303
307 306 309 309 310 310 306 294 284 293 292 296 294 293 291 295 294 295 292 289 295 290 284 281 280 290 298 292 288 287 287 281 274 275 278 288 283 286 294 297 301 302 301 302 302
305 307 309 311 312 309 298 286 289 293 294 292 292 290 291 295 294 293 291 291 293 292 284 283 284 294 295 295 293 287 285 290 285 284 282 283 287 292 297 297 299 299 301 301 301
300 305 307 314 313 305 292 290 294 296 295 293 286 291 288 290 289 289 289 295 294 296 295 290 283 292 293 295 294 289 292 283 282 277 275 280 282 284 291 293 296 296 298 300 304
301 301 308 313 309 298 288 292 296 298 297 293 290 289 291 289 290 289 290 293 297 295 295 290 287 287 291 288 286 288 285 289 287 284 278 277 280 293 292 294 294 296 298 300 304
302 295 309 308 293 297 293 296 298 297 298 295 296 294 291 292 289 289 288 293 298 297 291 293 287 282 286 292 294 293 289 286 282 280 285 282 280 296 294 295 296 296 299 301 303
297 300 309 306 290 290 295 296 296 296 295 294 293 294 295 290 286 291 292 297 298 296 293 292 284 280 282 285 291 287 290 290 288 287 282 279 280 296 297 297 298 298 298 301 304
299 294 300 301 299 292 290 292 293 298 297 297 294 294 293 290 291 289 290 295 296 297 302 296 287 283 279 283 287 285 288 289 287 280 283 283 286 291 294 296 297 298 300 301 303
300 295 296 290 291 293 293 294 293 292 296 296 293 293 290 287 288 287 290 292 296 300 295 291 285 288 289 290 290 289 288 288 286 286 283 286 287 291 294 296 297 301 300 301 301
293 291 294 291 294 293 293 292 292 293 292 290 289 292 291 287 288 286 290 290 289 292 294 293 287 289 286 291 290 288 290 289 289 291 291 290 288 296 298 298 298 299 299 299 301
300 300 295 291 291 289 289 290 292 293 295 295 292 290 289 291 294 295 294 294 293 290 289 291 289 285 281 288 287 283 288 290 291 292 291 286 291 295 295 297 298 298 299 301 303
Wind_Speed
17 17 17 17 17 17 18 17 17 17 16 17 16 16 16 16 17 7 6 3 3 5 9 8 8 9 7 5 6 4 6 10 13 15 19 17 12 16 11 6 7 4 1 4 6
18 18 18 18 18 17 17 18 17 17 17 17 16 16 15 14 6 10 7 7 7 3 5 6 8 9 4 4 6 7 8 19 14 14 15 14 13 16 12 12 9 9 4 4 7
20 19 19 19 19 18 18 18 18 18 18 18 17 16 14 10 6 1 11 10 9 5 6 8 12 8 6 8 11 7 18 14 18 18 19 18 17 17 15 12 10 8 11 10 5
20 21 20 20 20 20 19 19 19 19 19 19 17 16 15 4 3 5 15 15 11 4 6 6 7 6 4 8 7 19 16 18 20 22 23 22 14 18 17 14 10 10 6 3 13
20 21 22 22 22 21 20 19 19 19 19 19 18 14 8 4 7 9 15 14 6 5 9 9 7 6 9 6 12 18 16 17 18 21 24 23 23 20 22 16 16 17 11 9 8
20 20 21 22 23 22 20 20 19 19 19 18 15 12 4 5 2 14 13 12 12 9 6 6 4 8 5 7 7 7 13 16 17 19 19 20 22 20 23 16 17 16 11 10 7
19 20 23 22 23 22 21 20 19 21 19 17 9 5 5 13 3 7 6 3 5 6 3 6 7 8 9 9 7 10 13 15 15 15 16 10 18 26 18 19 18 21 20 13 7
22 23 23 24 24 23 23 22 21 21 19 13 5 4 8 2 4 7 6 10 3 5 5 7 7 5 5 8 9 7 7 6 2 9 14 9 24 21 9 12 18 16 17 21 11
23 23 25 26 25 25 23 22 25 22 16 9 4 5 8 3 4 3 5 6 5 5 6 9 3 7 7 6 6 6 6 10 14 13 12 10 25 26 18 17 17 20 21 18 20
22 22 25 26 26 23 22 25 16 8 8 7 7 5 7 7 4 4 11 5 6 8 7 6 5 6 4 4 5 8 9 10 10 6 8 13 23 16 14 20 21 17 11 14 13
24 24 24 26 23 19 11 7 1 2 3 7 6 8 15 4 3 5 2 2 6 7 6 7 5 5 10 9 9 11 13 12 14 13 14 12 20 17 14 16 16 20 20 18 19
26 25 26 25 23 17 5 3 7 6 8 12 14 18 7 2 3 10 3 1 5 7 10 6 6 7 10 11 10 11 14 12 13 10 16 13 22 18 15 16 16 14 19 21 16
25 26 26 26 23 7 5 7 6 7 4 10 10 6 7 8 7 7 3 4 6 7 8 6 10 13 13 11 11 11 12 12 17 15 15 10 20 23 21 16 17 19 11 9 14
26 26 25 26 5 4 4 5 7 6 3 6 5 3 3 7 7 9 4 4 4 6 7 5 8 10 8 9 8 7 15 15 16 14 10 4 19 16 17 20 15 16 14 10 10
26 27 26 13 8 6 5 6 4 3 3 7 7 5 4 5 4 4 9 6 7 9 4 8 13 11 6 8 12 9 13 17 15 16 15 14 11 14 8 15 13 13 17 18 12
27 26 23 2 3 10 9 8 3 2 4 5 7 7 8 7 9 2 4 6 10 10 11 13 15 2 3 6 9 11 7 11 5 5 13 17 13 20 13 17 17 14 19 19 18
30 30 15 5 5 12 7 5 1 2 5 5 5 9 9 12 5 2 3 8 6 4 4 5 5 5 4 1 4 4 6 5 5 3 10 13 14 19 14 18 15 13 13 18 15
31 31 5 6 8 10 5 3 2 9 10 11 12 12 13 17 6 4 9 8 3 7 5 2 8 7 3 6 7 3 1 4 5 7 13 15 11 9 11 8 18 22 20 19 17
28 4 2 4 7 3 3 2 3 11 10 11 13 10 8 13 11 10 7 5 6 8 3 5 5 11 15 12 11 4 5 13 11 13 7 6 8 15 14 18 19 21 23 25 24
6 4 4 5 2 3 2 4 5 12 12 10 6 8 11 12 11 11 7 8 8 12 8 6 14 6 11 11 10 8 5 7 4 4 5 4 14 4 13 17 19 21 22 26 25
2 2 1 1 3 1 1 4 13 11 7 5 10 10 12 9 10 12 6 12 11 11 9 7 2 8 8 4 12 11 3 4 2 5 2 5 2 2 5 7 12 15 19 24 26
5 2 5 3 1 2 2 11 12 16 5 8 10 6 5 10 9 11 13 7 11 8 5 4 4 5 15 17 8 5 6 4 2 3 3 7 8 4 5 1 6 11 15 21 22
7 4 2 3 1 3 7 11 15 11 5 5 4 8 4 6 6 9 11 8 12 4 2 2 3 6 7 6 3 2 5 6 7 12 14 9 8 10 5 0 7 10 11 18 17
4 5 3 2 4 7 8 11 11 15 10 9 5 6 10 7 5 8 13 10 11 5 3 4 6 7 9 14 13 18 18 19 13 4 14 10 15 19 5 1 5 9 13 12 15
3 4 4 5 6 11 8 10 10 12 7 9 8 13 11 8 9 9 12 11 14 2 5 5 4 8 14 18 19 21 22 21 18 15 15 19 18 1 5 8 2 3 13 11 20
4 4 5 7 8 8 12 6 13 10 8 10 7 10 11 9 11 18 13 12 9 5 3 3 4 6 20 22 21 22 22 19 18 8 14 17 14 6 8 9 7 12 20 18 23
3 4 3 6 7 7 6 12 13 10 4 6 10 9 11 16 15 17 13 15 18 13 11 6 3 3 8 12 15 11 9 6 9 10 10 10 10 8 11 4 8 13 19 16 20
Wind_Direction
343 339 336 335 333 331 329 327 324 322 320 318 318 319 316 318 316 298 240 247 225 309 309 281 281 266 272 230 262 277 242 240 234 243 262 283 307 309 304 285 312 318 327 149 92
344 340 337 335 332 329 326 323 321 318 316 317 320 321 321 326 294 260 236 195 231 279 297 275 275 228 220 235 219 203 227 233 246 251 258 278 291 299 329 331 319 324 338 119 88
341 339 337 335 331 329 325 322 319 317 317 317 319 318 315 319 273 159 188 228 246 229 249 274 279 288 261 224 232 231 240 248 256 259 269 274 273 284 291 298 282 298 350 342 167
340 337 336 334 330 327 324 321 318 315 314 313 315 317 306 252 30 160 196 221 227 231 270 258 248 242 223 244 242 248 245 238 256 268 280 280 297 294 296 290 268 287 306 4 330
339 337 334 332 329 325 322 318 314 311 310 309 312 319 329 231 240 183 201 221 230 220 231 238 256 260 233 236 238 257 269 266 250 250 261 274 270 272 278 284 293 283 291 291 288
337 335 332 329 326 323 320 315 312 310 310 311 310 311 226 272 324 173 203 213 219 188 301 320 323 306 294 297 284 292 285 270 263 260 259 256 260 267 266 270 275 280 267 261 256
336 334 333 329 324 321 317 313 312 310 311 314 309 283 253 248 251 246 250 270 170 200 232 306 355 11 338 322 291 319 304 296 275 273 276 287 271 246 256 263 263 275 283 273 229
337 334 332 328 324 319 315 311 307 301 303 308 296 283 263 210 321 298 0 308 321 11 302 263 193 236 258 265 298 290 285 298 301 271 275 264 267 262 266 258 254 259 269 276 252
336 333 330 327 323 318 313 308 297 289 283 282 256 203 278 179 217 28 305 279 298 293 291 281 216 199 273 272 301 254 258 265 275 258 266 232 251 256 256 256 262 245 246 260 270
335 328 327 326 322 318 317 297 283 311 249 225 244 290 273 259 75 312 273 19 312 273 278 257 212 212 248 205 233 249 261 263 261 290 269 266 267 267 248 238 244 252 252 250 255
331 328 325 326 321 324 336 343 354 23 251 239 239 239 290 46 21 272 310 357 293 330 291 286 9 274 257 262 263 287 292 293 306 324 322 298 290 295 299 298 272 241 240 240 242
331 329 328 326 322 319 289 246 26 267 299 267 264 269 257 72 268 283 9 245 348 301 312 313 248 256 329 328 329 324 315 309 309 321 305 312 295 296 294 291 295 283 252 237 233
331 330 330 328 320 298 229 290 285 10 313 296 215 221 206 186 239 279 87 317 301 316 320 324 308 332 325 317 317 296 294 302 291 290 268 295 286 292 291 277 284 287 272 272 245
331 330 334 331 317 299 240 342 13 43 297 214 163 183 180 206 239 222 141 89 319 298 300 288 268 283 296 301 345 344 336 324 325 333 298 272 281 278 293 296 297 292 292 265 255
330 329 330 321 302 303 338 17 22 56 346 179 123 154 218 219 263 306 144 159 235 261 289 262 288 284 303 17 357 302 319 310 305 296 304 292 276 282 288 281 282 286 285 289 271
327 325 333 63 197 258 325 330 359 313 260 146 152 204 212 233 281 115 217 196 236 233 226 238 265 3 57 7 322 334 324 315 310 296 269 271 268 277 266 276 280 280 286 290 292
325 318 318 282 261 322 357 327 350 216 256 73 9 1 331 291 274 196 231 266 253 295 345 308 338 119 98 320 276 320 1 316 313 276 261 265 254 250 265 262 283 295 294 289 277
326 314 220 226 280 307 358 347 268 297 28 7 356 320 285 281 193 242 252 267 14 34 13 14 327 322 155 199 236 208 190 261 280 275 283 304 281 263 287 256 17 359 328 308 292
322 299 259 244 245 336 16 318 313 328 17 357 340 313 330 358 7 343 333 346 47 25 21 313 288 329 318 323 319 285 225 246 283 274 274 244 273 281 4 5 1 356 342 333 322
316 282 261 147 211 12 20 280 312 22 0 357 316 306 345 337 341 348 345 1 25 24 30 333 310 303 317 333 302 257 250 308 291 267 263 295 299 302 359 348 352 349 339 328 318
226 259 191 326 77 26 269 284 316 339 6 3 318 304 313 334 338 325 324 322 31 348 352 350 251 305 322 260 289 308 351 37 152 284 293 298 275 324 23 344 343 327 332 323 307
310 343 206 145 49 211 297 309 332 317 24 309 314 292 340 350 312 318 299 328 327 47 337 48 274 285 284 283 294 78 127 138 274 272 221 262 266 227 155 2 277 323 332 307 298
315 274 235 113 299 348 317 346 313 346 336 296 292 309 345 297 313 303 310 311 321 76 345 103 318 311 293 298 33 122 253 243 231 267 269 271 268 216 177 33 329 309 319 298 313
295 335 348 330 4 24 342 309 315 312 329 349 284 286 309 278 293 290 313 309 305 297 246 213 190 217 255 272 284 285 281 278 232 236 262 260 282 275 192 24 285 351 317 298 310
308 11 6 315 337 313 289 291 318 312 25 3 337 338 331 334 315 285 284 299 309 345 131 129 258 263 265 271 277 281 291 282 279 265 275 271 277 299 206 192 175 342 287 305 295
10 4 343 290 296 293 283 352 345 338 346 319 298 333 329 306 295 299 303 304 282 316 335 78 275 309 282 271 271 277 279 273 286 341 335 310 311 358 335 157 207 223 265 264 256
25 342 300 288 300 333 7 335 316 306 295 291 288 276 299 287 282 289 284 283 275 268 261 176 218 297 276 302 310 288 285 333 341 345 341 317 299 333 328 326 249 253 248 290 305